Location: Bronnegerveen
(52.9548°N, 6.8388°E)
Time: 02:22:44
(UTC+00:00)

Sich 1 Rocket - Pass Details

Date: 15 June 2025
Orbit: 612 x 646 km, 82.5° (Epoch: 06 July)

Event Time Altitude Azimuth Distance (km) Brightness Sun altitude
Rises 01:29:14 0° 343° (NNW) 2,916 7.8 -9.7°
Reaches altitude 10° 01:31:33 10° 336° (NNW) 2,009 6.8 -9.5°
Maximum altitude 01:35:43 40° 268° (W) 932 4.2 -9.2°
Enters shadow 01:39:38 11° 200° (SSW) 1,924 5.4 -8.9°
